Погода в Шкорпиловцах

Болгария     42°57′52″N   27°52′38″E
темп.,
°C
ветер,
м/с
пор.,
м/с
влажн.,
%
обл.,
%
осадки,
мм/ч
давл.,
гПа
погр.,
м
17 мая, пн
пн1700:00+16ююз33785 0.0 100881
03:00+15з45802 0.0 1007157
06:00+15з46845 0.0 1008224
09:00+16з57780 0.0 1009378
12:00+19юз227013 0.0 1008121
15:00+21ююз4567100 0.0 1006158
18:00+18ю6879100 0.1 1006123
21:00+17ю348997 1.4 100663
18 мая, вт
вт1800:00+16зсз5794100 3.0 1007230
03:00+16зсз339116 5.7 1007128
06:00+15зсз5138928 0.1 1007565
09:00+16зсз1321700 0.1 1009799
12:00+18зсз1319620 0.0 1010934
15:00+19зсз1217570 0.0 1010755
18:00+19з1116590 0.0 1011670
21:00+18зсз1017580 0.0 1012740
19 мая, ср
ср1900:00+16з512600 0.0 1013558
03:00+15з511630 0.0 1014560
06:00+14зюз35630 0.0 1014167
09:00+16з35610 0.0 1015281
12:00+18ююв22610 0.0 1015177
15:00+17ююв777513 0.0 1014237
18:00+17ююв79784 0.0 1013212
21:00+17ю57745 0.0 1013117
20 мая, чт
чт2000:00+17ю347422 0.0 101387
03:00+17ю3477100 0.0 1012126
06:00+17юв23775 0.0 1011137
09:00+17вюв44770 0.0 1011172
12:00+17в34760 0.0 1011183
15:00+17всв447767 0.0 1010276
18:00+17в45875 0.0 1009329
21:00+17в459180 0.0 1008229
21 мая, пт
пт2100:00+17вюв348927 0.0 1008145
03:00+17з118645 0.0 100837
06:00+15сз589085 0.0 1008271
09:00+17с3487100 0.0 1009288
12:00+18ссв1182100 0.0 101062
15:00+17всв449094 0.0 1010153
18:00+18с2386100 0.1 1011185
21:00+19сз5682100 0.1 101169